STARLINK-3052 (49165 NORAD) Tracking and Keplerian Element Data

This shows tracking and keplerian element data for the satellite.

Feedback or suggestion? Click here.




ElementValue
Catalog49165
NameSTARLINK-3052
Epoch Orbit367
Epoch Day300.58334491
Epoch Year2021
RAAN4.6658
Inclination70.0011
Eccentricity0.0003904
Argument of Perigee292.6419
Mean Anonmoly114.3227
Mean Motion15.69714354
Decay Rate0.00056418
L11 49165U 21082AM 21300.58334491 .00056418 00000-0 47184-3 0 9992
L22 49165 70.0011 4.6658 0003904 292.6419 114.3227 15.69714354 3675

Live tracking and technical data element details for STARLINK-3052 (NORAD 49165). STARLINK-3052 can be tracked NOW for your location showing map with azimuth and elevation plus other details from your city location.

Track the satellite on the map from your city or location and see movement details for azimuth, elevation, latitude, longitude, range, height, and movement on the map or in text.







IsCatalogInMostPopularTable: catalog: 49165, numindb: 7
Update: records affected: 1



GetName: 49165 STARLINK-3052

Hit Count: updated at: Thu, 28 Oct 2021 10:25:36 GMT